Ashland, WI

10:13 PM CST on January 18, 2018 (GMT -0600)
Kennedy Memorial

Weather History for KASX - November, 2012

Change the Weather History Date:

Sunday, November 4, 2012

  Actual Average Record
Temperature  
Mean Temperature 34 °F 37 °F  
Max Temperature 41 °F 45 °F 74 °F (1975)
Min Temperature 26 °F 28 °F 8 °F (1951)
Degree Days  
Heating Degree Days 32 28  
Month to date heating degree days 110  
Cooling Degree Days 0 0  
Month to date cooling degree days 0  
Moisture  
Dew Point 25 °F    
Average Humidity 73    
Maximum Humidity 93    
Minimum Humidity 55    
Precipitation  
Precipitation 0.00 in - 0.32 in (1982)
Sea Level Pressure  
Sea Level Pressure 30.29 in    
Wind  
Wind Speed 3 mph (ENE)    
Max Wind Speed 13 mph    
Max Gust Speed 16 mph    
Visibility 10 miles    
Events      
T = Trace of Precipitation, MM = Missing Value Source: NWS Daily Summary

Daily Weather History Graph

Daily Weather History Graph

Search for Another Location

Airport or City:

Trip Planner

Search our weather history database for the weather conditions in past years. The results will help you decide how hot, cold, wet, or windy it might be!

Date:

Astronomy

Nov. 04, 2012 Rise Set
Actual Time 6:50 AM CST 4:43 PM CST
Civil Twilight 6:18 AM CST 5:15 PM CST
Nautical Twilight 5:42 AM CST 5:51 PM CST
Astronomical Twilight 5:07 AM CST 6:26 PM CST
Moon 9:18 PM CST (11/4) 11:38 AM CST (11/4)
Length of Visible Light 10h 56m
Length of Day
9h 52m
Waning Gibbous, 72% of the Moon is Illuminated
Nov 4
Waning Gibbous
Nov 6
Last Quarter
Nov 13
New
Nov 20
First Quarter
Nov 28
Full

Hourly Weather History & Observations

Time (CST) Temp. Windchill Dew Point Humidity Pressure Visibility Wind Dir Wind Speed Gust Speed Precip Events Conditions
12:53 AM 32.0 °F - 27.0 °F 82% 30.31 in 10.0 mi Calm Calm - 0.00 in   Overcast
1:53 AM 32.0 °F - 26.1 °F 79% 30.30 in 10.0 mi Calm Calm - N/A   Overcast
1:53 AM 30.9 °F - 26.1 °F 82% 30.30 in 10.0 mi Calm Calm - N/A   Overcast
2:53 AM 30.9 °F 27.5 °F 25.0 °F 79% 30.30 in 10.0 mi South 3.5 mph - N/A   Overcast
3:53 AM 30.9 °F - 25.0 °F 79% 30.31 in 10.0 mi Calm Calm - N/A   Overcast
4:53 AM 30.0 °F - 24.1 °F 79% 30.32 in 10.0 mi Calm Calm - N/A   Overcast
5:53 AM 30.0 °F - 24.1 °F 79% 30.32 in 10.0 mi Calm Calm - N/A   Overcast
6:53 AM 30.0 °F - 24.1 °F 79% 30.33 in 10.0 mi Calm Calm - N/A   Overcast
7:53 AM 30.0 °F 26.5 °F 24.1 °F 79% 30.33 in 10.0 mi SSW 3.5 mph - N/A   Overcast
8:53 AM 32.0 °F - 24.1 °F 73% 30.33 in 10.0 mi Calm Calm - N/A   Overcast
9:53 AM 34.0 °F 31.0 °F 24.1 °F 67% 30.32 in 10.0 mi SSE 3.5 mph - N/A   Overcast
10:53 AM 36.0 °F 33.3 °F 24.1 °F 62% 30.31 in 10.0 mi Variable 3.5 mph - N/A   Overcast
11:53 AM 37.9 °F 35.5 °F 24.1 °F 57% 30.30 in 10.0 mi NNE 3.5 mph - N/A   Mostly Cloudy
12:42 PM 39.2 °F 35.0 °F 24.8 °F 56% 30.25 in 10.0 mi Variable 5.8 mph - N/A   Partly Cloudy
12:53 PM 41.0 °F 39.0 °F 26.1 °F 55% 30.28 in 10.0 mi Variable 3.5 mph - N/A   Scattered Clouds
1:04 PM 39.2 °F 31.6 °F 24.8 °F 56% 30.24 in 10.0 mi NNE 12.7 mph 16.1 mph N/A   Mostly Cloudy
1:13 PM 39.2 °F 32.5 °F 26.6 °F 61% 30.24 in 10.0 mi NNE 10.4 mph - N/A   Mostly Cloudy
1:53 PM 39.9 °F 33.9 °F 25.0 °F 55% 30.27 in 10.0 mi NE 9.2 mph - N/A   Mostly Cloudy
2:31 PM 37.4 °F 29.8 °F 26.6 °F 65% 30.23 in 10.0 mi NE 11.5 mph - N/A   Mostly Cloudy
2:40 PM 39.2 °F 33.0 °F 26.6 °F 61% 30.23 in 10.0 mi NNE 9.2 mph - N/A   Scattered Clouds
2:53 PM 39.0 °F 32.3 °F 25.0 °F 57% 30.27 in 10.0 mi NE 10.4 mph - N/A   Partly Cloudy
3:53 PM 37.0 °F 30.4 °F 26.1 °F 65% 30.27 in 10.0 mi NE 9.2 mph - N/A   Clear
4:53 PM 30.9 °F 25.2 °F 24.1 °F 76% 30.28 in 10.0 mi NE 5.8 mph - N/A   Clear
5:53 PM 28.9 °F 21.9 °F 24.1 °F 82% 30.29 in 10.0 mi ENE 6.9 mph - N/A   Clear
6:53 PM 28.0 °F 20.8 °F 25.0 °F 88% 30.30 in 10.0 mi NE 6.9 mph - N/A   Clear
7:53 PM 28.9 °F 21.9 °F 25.0 °F 85% 30.30 in 10.0 mi NE 6.9 mph - N/A   Clear
8:53 PM 28.0 °F 24.2 °F 25.0 °F 88% 30.30 in 10.0 mi East 3.5 mph - N/A   Scattered Clouds
9:10 PM 26.6 °F 21.2 °F 24.8 °F 93% 30.26 in 10.0 mi East 4.6 mph - N/A   Mostly Cloudy
9:53 PM 28.9 °F 25.2 °F 26.1 °F 89% 30.30 in 10.0 mi East 3.5 mph - N/A   Overcast
10:53 PM 30.9 °F 26.2 °F 26.1 °F 82% 30.30 in 10.0 mi ESE 4.6 mph - N/A   Overcast